[[{"header":{"parameterUnit":"m.s-1","parameterCategory":1,"la1":30.2991,"la2":30.254,"lo1":-89.0895,"lo2":-89.0444,"dy":0.0017,"dx":0.0017,"nx":28,"ny":28,"refTime":"2024-04-17T09:00:00:Z","depth":0,"parameterNumber":2,"parameterNumberName":"U-component_of_WINDS"},"data":[0,0,0,0,0,0,0,0,0,0,0,0,0,0,0,0,0,0,0,0,0,0,0,0,0,0,0,0,0,0,0,0,0,0,0,0,0,0,0,0,0,0,0,0,0,0,0,0,0,0,0,0,0,0,0,0,0,0,-2.558,-2.5581,0,-2.5674,-2.5675,-2.5676,-2.5682,-2.5681,-2.568,-2.5679,-2.5776,-2.5779,-2.5783,0,0,0,0,0,0,0,0,0,0,0,0,0,-2.5407,-2.541,-2.558,-2.5581,-2.5582,-2.5674,-2.5675,-2.5676,-2.5683,-2.5681,-2.568,-2.5679,-2.5775,-2.5779,-2.5783,0,0,0,0,0,0,0,0,0,0,0,0,0,-2.549,-2.5411,-2.558,-2.5596,-2.5599,-2.5674,-2.5675,-2.5677,-2.5683,-2.5681,-2.568,-2.5678,-2.5773,-2.5779,-2.5784,-2.5849,0,0,-2.58,-2.5802,0,0,0,0,0,0,0,0,-2.5485,-2.5496,-2.5593,-2.5595,-2.5598,-2.5665,-2.565,-2.5734,-2.5683,-2.5651,-2.5679,-2.5677,-2.574,-2.5748,-2.5769,-2.5853,-2.5857,-2.5801,-2.5804,-2.5806,-2.5808,0,0,0,0,0,0,0,-2.5479,-2.5492,-2.5617,-2.5594,-2.5598,-2.56,-2.561,-2.5666,-2.5703,-2.5654,-2.5654,-2.5665,-2.5742,-2.5764,-2.5772,-2.5859,-2.5801,-2.5805,-2.5809,-2.5811,-2.6001,-2.6003,0,0,0,0,0,0,-2.547,-2.5487,-2.5614,-2.562,-2.5537,-2.5604,-2.5615,-2.5645,-2.5703,-2.571,-2.5667,-2.5665,-2.5756,-2.5765,-2.5775,-2.5855,-2.5806,-2.5811,-2.5814,-2.5999,-2.6001,-2.6003,0,0,0,0,0,0,-2.5466,-2.5481,-2.561,-2.5554,-2.557,-2.5609,-2.5642,-2.5648,-2.567,-2.5713,-2.5719,-2.5683,-2.5755,-2.5768,-2.583,-2.5858,-2.5814,-2.5818,-2.5997,-2.6,-2.6002,-2.6015,0,0,0,0,0,0,-2.5461,-2.548,-2.5505,-2.5554,-2.5573,-2.5664,-2.5644,-2.5651,-2.568,-2.5679,-2.573,-2.5737,-2.5755,-2.5822,-2.5836,-2.5865,-2.5823,-2.5995,-2.5998,-2.6001,-2.6012,-2.6018,-2.6023,0,0,0,0,0,-2.5455,-2.5504,-2.5506,-2.5521,-2.5605,-2.5665,-2.5676,-2.5696,-2.5682,-2.5707,-2.5734,-2.5735,-2.5853,-2.5829,-2.5844,-2.5875,-2.5993,-2.5997,-2.6001,-2.601,-2.6017,-2.6022,0,0,0,0,0,0,-2.5457,-2.5511,-2.5513,-2.558,-2.5618,-2.5666,-2.5699,-2.5703,-2.5746,-2.5743,-2.5766,-2.5778,-2.584,-2.5864,-2.5835,-2.5941,-2.5922,-2.5929,-2.5923,-2.593,-2.5935,-2.5928,-2.5827,0,0,0,0,0,-2.5465,-2.5509,-2.5554,-2.5609,-2.5628,-2.566,-2.5687,-2.5699,-2.574,-2.5756,-2.5787,-2.5827,-2.5873,-2.5903,-2.5948,-2.6016,-2.6027,-2.6045,-2.605,-2.6054,-2.606,-2.6099,-2.6107,-2.6017,-2.6017,-2.6017,0,0,-2.5482,-2.5517,-2.5544,-2.561,-2.5641,-2.5687,-2.5673,-2.5722,-2.5756,-2.5763,-2.5824,-2.5849,-2.5895,-2.5961,-2.5991,-2.5983,-2.6088,-2.606,-2.6062,-2.6066,-2.6104,-2.6112,-2.612,-2.602,-2.6019,-2.6019,0,0,-2.5537,-2.5568,-2.5617,-2.5648,-2.5695,-2.5716,-2.5728,-2.5776,-2.5793,-2.5855,-2.5861,-2.5902,-2.5981,-2.6013,-2.604,-2.6108,-2.6111,-2.6122,-2.6149,-2.6187,-2.6194,-2.62,-2.6225,-2.6233,-2.6128,-2.6128,-2.6128,0,-2.5552,-2.5621,-2.5641,-2.569,-2.5719,-2.5728,-2.5778,-2.5807,-2.5867,-2.5887,-2.5876,-2.5976,-2.6007,-2.6081,-2.6098,-2.6119,-2.6134,-2.6116,-2.6191,-2.6198,-2.6204,-2.6227,-2.6237,-2.6129,-2.6129,-2.6129,-2.6129,0,-2.5637,-2.5685,-2.5719,-2.5776,-2.5809,-2.5859,-2.5887,-2.5918,-2.5928,-2.595,-2.6014,-2.6052,-2.6105,-2.6123,-2.6133,-2.6199,-2.6192,-2.6186,-2.6167,-2.6213,-2.6236,-2.6245,-2.6131,-2.6131,-2.613,-2.613,0,0,-2.5695,-2.5763,-2.5775,-2.5802,-2.5855,-2.5892,-2.5942,-2.5994,-2.602,-2.6061,-2.6104,-2.6171,-2.6166,-2.6197,-2.621,-2.6243,-2.6295,-2.6233,-2.6235,-2.6243,-2.637,-2.6374,-2.6384,-2.6297,-2.6299,-2.63,-2.6367,0,-2.5755,-2.5844,-2.5864,-2.5941,-2.5985,-2.5995,-2.6038,-2.6076,-2.6099,-2.614,-2.6165,-2.6213,-2.6202,-2.6221,-2.6254,-2.6282,-2.6321,-2.6277,-2.6337,-2.6339,-2.6325,-2.6396,-2.64,-2.6461,-2.6376,-2.6377,-2.6378,0,-2.5837,-2.588,-2.5961,-2.6009,-2.6028,-2.6067,-2.6116,-2.6156,-2.6199,-2.6213,-2.6248,-2.6258,-2.6311,-2.629,-2.6364,-2.6334,-2.636,-2.6377,-2.638,-2.6386,-2.6361,-2.6404,-2.6481,-2.6489,-2.6392,-2.6391,-2.639,0,-2.5871,-2.5949,-2.6007,-2.603,-2.6087,-2.6114,-2.6139,-2.6181,-2.6211,-2.6254,-2.6274,-2.6323,-2.635,-2.6388,-2.6412,-2.6394,-2.6484,-2.6464,-2.6497,-2.6497,-2.6515,-2.6514,-2.6597,-2.6533,-2.6532,-2.6532,-2.6532,0,-2.5936,-2.5985,-2.6023,-2.6059,-2.6115,-2.6138,-2.6193,-2.6218,-2.6255,-2.6297,-2.6308,-2.6347,-2.6376,-2.6419,-2.6438,-2.6496,-2.6508,-2.6522,-2.6526,-2.6521,-2.6519,-2.6537,-2.6534,-2.6535,-2.6534,-2.6534,-2.6533,0,-2.5983,-2.601,-2.6075,-2.6124,-2.6137,-2.6176,-2.6219,-2.6254,-2.6277,-2.633,-2.6344,-2.638,-2.6432,-2.6459,-2.6523,-2.6536,-2.6602,-2.6604,-2.6587,-2.6589,-2.662,-2.6617,-2.6718,-2.6733,-2.6659,-2.6659,-2.666,0,-2.6022,-2.606,-2.6113,-2.6142,-2.6168,-2.6213,-2.6244,-2.6269,-2.6301,-2.6353,-2.6383,-2.6435,-2.6478,-2.6559,-2.6592,-2.6641,-2.6645,-2.6677,-2.6652,-2.6646,-2.6645,-2.6642,-2.6646,-2.6681,-2.6682,-2.6682,-2.6683,0,-2.6089,-2.6101,-2.6145,-2.6194,-2.6231,-2.6271,-2.631,-2.6333,-2.6364,-2.64,-2.6452,-2.6485,-2.6551,-2.6603,-2.6655,-2.6681,-2.6688,-2.669,-2.6701,-2.6695,-2.6684,-2.669,-2.6598,-2.6688,-2.6687,-2.6687,-2.6686,-2.6686,-2.6134,-2.6168,-2.6211,-2.626,-2.6292,-2.6329,-2.6365,-2.6393,-2.6437,-2.6493,-2.6505,-2.656,-2.6604,-2.6674,-2.6702,-2.6746,-2.674,-2.6755,-2.6759,-2.6762,-2.6763,-2.6677,-2.6756,-2.6756,-2.6756,-2.6756,-2.6756,0,-2.6201,-2.623,-2.6274,-2.6329,-2.6368,-2.637,-2.6414,-2.6447,-2.6495,-2.6535,-2.6577,-2.6638,-2.6688,-2.6725,-2.6776,-2.6805,-2.6809,-2.6817,-2.6815,-2.6821,-2.6766,-2.6752,-2.6813,-2.6813,-2.6813,-2.6813,-2.6813,-2.6813,-2.6241,-2.63,-2.6317,-2.6392,-2.642,-2.6474,-2.6499,-2.6534,-2.6565,-2.6633,-2.6674,-2.6698,-2.6737,-2.6792,-2.6838,-2.6848,-2.6866,-2.6874,-2.6884,-2.6831,-2.6825,-2.6819,-2.6806,-2.6878,-2.6878,-2.6936,-2.6937,-2.6937]},{"header":{"parameterUnit":"m.s-1","parameterCategory":1,"la1":30.2991,"la2":30.254,"lo1":-89.0895,"lo2":-89.0444,"dy":0.0017,"dx":0.0017,"nx":28,"ny":28,"refTime":"2024-04-17T09:00:00:Z","depth":0,"parameterNumber":3,"parameterNumberName":"V-component_of_WINDS"},"data":[0,0,0,0,0,0,0,0,0,0,0,0,0,0,0,0,0,0,0,0,0,0,0,0,0,0,0,0,0,0,0,0,0,0,0,0,0,0,0,0,0,0,0,0,0,0,0,0,0,0,0,0,0,0,0,0,0,0,3.9134,3.9134,0,3.9115,3.9115,3.9115,3.9066,3.9065,3.9064,3.9063,3.9045,3.9046,3.9046,0,0,0,0,0,0,0,0,0,0,0,0,0,3.913,3.9131,3.9134,3.9134,3.9134,3.9115,3.9115,3.9115,3.9066,3.9065,3.9064,3.9063,3.9045,3.9045,3.9046,0,0,0,0,0,0,0,0,0,0,0,0,0,3.9124,3.9131,3.9134,3.9107,3.9105,3.9115,3.9115,3.9115,3.9067,3.9065,3.9064,3.9062,3.9045,3.9045,3.9046,3.9082,0,0,3.9048,3.9049,0,0,0,0,0,0,0,0,3.9124,3.9124,3.9112,3.9109,3.9106,3.9091,3.9107,3.9104,3.9067,3.9081,3.9063,3.9061,3.9062,3.9061,3.9061,3.9081,3.908,3.9048,3.9049,3.9049,3.9049,0,0,0,0,0,0,0,3.9125,3.9124,3.9127,3.9111,3.9108,3.9097,3.9094,3.9106,3.908,3.908,3.9076,3.9075,3.906,3.906,3.906,3.908,3.9048,3.9049,3.9049,3.905,3.9128,3.913,0,0,0,0,0,0,3.9129,3.9125,3.9127,3.9126,3.9112,3.9098,3.9095,3.9098,3.908,3.9076,3.9076,3.9072,3.906,3.9059,3.9059,3.91,3.9049,3.905,3.905,3.9127,3.9129,3.913,0,0,0,0,0,0,3.9129,3.9129,3.9128,3.9125,3.9124,3.91,3.9103,3.9098,3.9098,3.9077,3.9073,3.9081,3.9059,3.9058,3.9076,3.9099,3.905,3.9051,3.9125,3.9127,3.913,3.9181,0,0,0,0,0,0,3.9129,3.913,3.9143,3.9125,3.9124,3.9145,3.9105,3.9099,3.91,3.9095,3.908,3.9077,3.9057,3.9076,3.9077,3.9099,3.9051,3.9123,3.9126,3.9129,3.9177,3.9185,3.9192,0,0,0,0,0,3.9129,3.9158,3.9143,3.9144,3.9139,3.9146,3.9146,3.9123,3.9102,3.9114,3.9101,3.9077,3.9096,3.9078,3.9079,3.9101,3.9121,3.9125,3.9128,3.9174,3.9184,3.9192,0,0,0,0,0,0,3.9179,3.9155,3.9139,3.9163,3.9157,3.9138,3.9154,3.9133,3.9133,3.9129,3.9101,3.9098,3.912,3.9112,3.9093,3.9135,3.9105,3.9109,3.9139,3.9148,3.9155,3.9156,3.9052,0,0,0,0,0,3.9193,3.92,3.9179,3.9202,3.92,3.9178,3.918,3.9163,3.9156,3.9153,3.9141,3.9135,3.914,3.9143,3.9146,3.9176,3.9173,3.9192,3.9199,3.9205,3.9209,3.9225,3.9233,3.9143,3.9143,3.9143,0,0,3.9221,3.9209,3.9216,3.9212,3.9205,3.9214,3.9176,3.9187,3.9193,3.9155,3.9171,3.9162,3.9154,3.9178,3.9188,3.9172,3.9234,3.921,3.9215,3.9216,3.923,3.9238,3.9246,3.9145,3.9145,3.9144,0,0,3.9278,3.9269,3.9288,3.9282,3.9272,3.9257,3.9262,3.9246,3.9239,3.9255,3.9226,3.9234,3.9242,3.9238,3.9236,3.9292,3.927,3.9294,3.9331,3.9347,3.9354,3.936,3.9381,3.9388,3.9298,3.9298,3.9298,0,3.9314,3.9326,3.93,3.9313,3.9312,3.9278,3.9297,3.9293,3.9285,3.9286,3.9268,3.9278,3.9271,3.9294,3.9307,3.9307,3.9312,3.9295,3.9355,3.9361,3.9367,3.9385,3.9393,3.9301,3.9301,3.93,3.93,0,3.9372,3.938,3.9396,3.9389,3.9391,3.9407,3.9384,3.9389,3.9372,3.9359,3.9376,3.9365,3.9366,3.937,3.9354,3.9391,3.9382,3.936,3.9329,3.9379,3.9396,3.9403,3.9305,3.9304,3.9303,3.9303,0,0,3.9458,3.9437,3.9444,3.944,3.9428,3.9434,3.9449,3.9449,3.9453,3.945,3.9461,3.947,3.945,3.9449,3.9431,3.9445,3.949,3.9422,3.9421,3.9435,3.9531,3.9548,3.9556,3.9476,3.9477,3.9478,3.9532,0,3.9512,3.9535,3.9513,3.954,3.9548,3.9516,3.9529,3.9523,3.9511,3.9517,3.9504,3.951,3.9484,3.9483,3.9495,3.9482,3.9509,3.9478,3.9487,3.9488,3.949,3.9565,3.9582,3.9634,3.9539,3.954,3.9541,0,3.9576,3.9575,3.9604,3.959,3.9592,3.9604,3.9603,3.9608,3.9601,3.9592,3.9591,3.957,3.9584,3.9554,3.9573,3.9552,3.9555,3.9549,3.9551,3.955,3.9517,3.9567,3.9649,3.9657,3.9551,3.955,3.9549,0,3.9637,3.9643,3.966,3.9659,3.9642,3.9652,3.9645,3.9637,3.9638,3.9638,3.9638,3.964,3.964,3.9642,3.9622,3.9602,3.9644,3.9612,3.9637,3.9638,3.9647,3.9647,3.9731,3.9649,3.9649,3.9649,3.9648,0,3.9699,3.9718,3.9688,3.9699,3.9719,3.9694,3.9715,3.9705,3.9698,3.9707,3.968,3.9689,3.9662,3.9669,3.9653,3.9672,3.9672,3.9666,3.9661,3.9668,3.9669,3.9669,3.9665,3.9651,3.965,3.965,3.9649,0,3.977,3.975,3.9768,3.9751,3.9747,3.9763,3.9749,3.9759,3.9746,3.9758,3.9759,3.9739,3.9745,3.9726,3.9729,3.9719,3.9746,3.9736,3.9748,3.9745,3.9771,3.9769,3.9859,3.9869,3.9781,3.9782,3.9782,0,3.981,3.9824,3.9809,3.9813,3.9808,3.9815,3.9816,3.9792,3.9795,3.9789,3.9799,3.9804,3.9805,3.9818,3.9803,3.9806,3.9796,3.9827,3.9796,3.9803,3.9797,3.9796,3.9797,3.9833,3.9834,3.9835,3.9836,0,3.9884,3.9874,3.9877,3.9878,3.988,3.9879,3.9876,3.9881,3.9856,3.9861,3.9867,3.9868,3.9872,3.9877,3.9876,3.987,3.9849,3.9846,3.9852,3.9859,3.9866,3.9863,3.9766,3.9844,3.9843,3.9843,3.9842,3.9842,3.9941,3.9952,3.9943,3.9948,3.9943,3.9942,3.995,3.9938,3.9943,3.9943,3.9929,3.9939,3.9932,3.9929,3.9925,3.9933,3.9918,3.9927,3.9929,3.9932,3.9936,3.9865,3.9932,3.9932,3.9932,3.9932,3.9932,0,4.0014,4.0007,4.0011,4.0008,4.0012,3.9992,3.9988,3.9993,4.0001,3.9996,3.9999,4.0006,4.0011,3.9997,4.0,4.0009,3.9999,4.001,4.0009,4.0008,3.9949,3.9943,4.0018,4.0018,4.0018,4.0018,4.0018,4.0018,4.0052,4.007,4.0059,4.0074,4.0067,4.0075,4.0075,4.0073,4.0069,4.0079,4.0082,4.0073,4.0065,4.0067,4.0071,4.0067,4.0069,4.0084,4.0076,4.0021,4.0012,4.0004,3.9999,4.0084,4.0084,4.0135,4.0136,4.0136]}]]